Vorticity
10 8 7 7 7 6 5 6 6 6 -4 6 6 4 6 7 15 5 7 5 4 5 4 5 7 10 7
10 7 9 8 8 7 5 22 26 11 -4 3 19 13 13 7 10 5 7 7 7 5 6 6 7 7 9
5 6 9 4 6 28 13 4 7 21 9 7 8 4 1 3 9 7 4 5 5 7 9 13 11 10 12
1 31 -22 17 15 -4 -3 2 3 9 6 -2 8 5 9 5 6 4 2 5 9 9 6 7 9 12 12
-1 3 22 18 22 15 -6 10 17 5 -1 4 8 6 5 2 3 7 8 8 7 7 9 11 12 10 10
4 -1 5 -5 16 11 9 19 24 17 6 7 6 3 -1 3 8 8 7 8 10 10 12 8 6 16 17
8 8 1 8 47 -18 21 16 20 7 1 2 1 1 7 10 8 7 10 12 11 9 3 13 21 12 4
13 9 5 24 -5 19 -1 10 -10 -14 -5 -11 10 17 7 7 9 9 11 11 6 1 20 18 4 5 23
3 0 -12 -1 -15 17 13 -38 -10 14 15 13 4 3 9 12 11 10 8 12 -1 14 13 2 11 18 8
7 2 -1 5 7 17 19 21 19 9 6 9 15 16 12 11 8 7 11 3 5 11 15 16 6 12 12
-7 4 7 3 4 7 5 4 6 9 13 13 9 8 10 9 20 13 -5 11 18 12 8 12 11 13 10
4 4 7 9 6 2 3 12 14 12 10 11 8 12 6 12 -4 8 14 11 11 10 14 14 12 9 7
8 4 2 6 15 15 18 16 4 7 9 16 10 3 -2 7 12 17 11 12 13 9 9 12 7 7 10
6 6 4 13 15 9 6 17 20 17 7 10 3 6 19 13 13 15 12 11 9 9 7 10 11 10 8
5 16 7 12 7 6 19 12 3 9 15 13 17 16 14 13 11 10 10 8 9 10 9 11 11 10 13
16 8 2 17 18 17 18 17 11 13 15 11 11 11 11 11 13 9 10 9 9 11 10 11 12 14 18
30 20 19 18 16 12 10 9 10 14 13 12 12 9 9 10 10 8 8 10 10 12 14 16 18 14 14
Height
5753 5751 5749 5746 5742 5739 5737 5734 5730 5727 5722 5718 5716 5712 5708 5704 5700 5697 5692 5687 5682 5676 5670 5664 5657 5650 5644
5743 5740 5738 5735 5733 5730 5727 5725 5719 5716 5713 5708 5703 5699 5696 5692 5688 5683 5678 5674 5669 5662 5655 5649 5642 5635 5627
5733 5730 5728 5725 5722 5718 5716 5713 5710 5706 5703 5697 5693 5689 5684 5680 5676 5671 5665 5658 5652 5646 5639 5632 5624 5616 5608
5721 5717 5714 5713 5711 5709 5705 5701 5696 5693 5688 5683 5680 5676 5671 5665 5662 5655 5648 5642 5635 5627 5620 5612 5605 5598 5590
5710 5707 5703 5701 5698 5695 5694 5691 5684 5680 5675 5669 5667 5661 5655 5649 5644 5637 5629 5622 5616 5608 5601 5594 5587 5580 5572
5698 5695 5692 5691 5686 5681 5678 5674 5669 5664 5663 5654 5651 5645 5638 5631 5624 5618 5611 5603 5596 5589 5582 5574 5567 5560 5552
5683 5680 5676 5674 5668 5665 5663 5659 5655 5652 5649 5643 5637 5631 5623 5614 5607 5599 5592 5584 5578 5571 5563 5556 5548 5541 5534
5670 5665 5662 5659 5657 5649 5647 5643 5638 5635 5631 5628 5622 5617 5607 5597 5588 5581 5574 5567 5560 5553 5545 5537 5530 5524 5517
5654 5651 5648 5646 5641 5636 5631 5626 5621 5616 5614 5608 5603 5599 5593 5583 5571 5563 5556 5550 5543 5535 5527 5520 5513 5506 5500
5640 5637 5633 5629 5624 5619 5615 5609 5604 5597 5594 5589 5582 5576 5576 5569 5558 5547 5541 5533 5525 5517 5510 5501 5494 5487 5481
5625 5620 5617 5612 5607 5602 5596 5590 5585 5577 5572 5567 5562 5556 5551 5547 5542 5529 5522 5514 5506 5498 5491 5481 5473 5466 5461
5608 5603 5598 5594 5589 5583 5577 5570 5564 5558 5551 5546 5541 5536 5530 5526 5521 5513 5504 5493 5487 5481 5475 5465 5456 5447 5438
5589 5585 5581 5577 5571 5564 5557 5550 5544 5537 5531 5525 5520 5515 5508 5501 5497 5490 5484 5477 5467 5462 5455 5447 5439 5431 5424
5571 5565 5561 5555 5550 5545 5539 5532 5524 5517 5511 5506 5501 5495 5489 5479 5473 5468 5459 5453 5449 5442 5437 5429 5420 5409 5402
5551 5546 5542 5537 5531 5526 5520 5514 5508 5501 5492 5485 5480 5475 5468 5461 5456 5447 5441 5434 5427 5421 5415 5410 5402 5391 5384
5533 5528 5523 5518 5511 5506 5501 5495 5488 5482 5475 5469 5464 5459 5453 5445 5434 5427 5420 5413 5406 5400 5392 5388 5384 5372 5363
5514 5509 5504 5499 5493 5488 5482 5476 5470 5464 5456 5450 5444 5439 5435 5430 5425 5405 5399 5392 5387 5381 5372 5366 5362 5355 5346